This demonstration page uses our WeatherBlox Daily Observations layout. Learn more.

Left ArrowRight Arrow

Hourly Observations for January 1, 2021

Temp ( °F °C ) Dew Point ( °F °C ) Humidity (%) Winds ( mph kmh ) Pressure ( in mb ) Visibility ( mi km ) Precip ( " mm )
12:53 am 00:53 Clear 23 -5 19 -7.2 85 85 W 7 11 30.03 1017 10 16 0.00 0.00
1:53 am 01:53 Clear 23 -5 19 -7.2 85 85 WSW 8 13 30.03 1017 10 16 0.00 0.00
2:53 am 02:53 Clear 26 -3.3 21 -6.1 81 81 WSW 10 17 30.04 1017 10 16 0.00 0.00
3:53 am 03:53 Clear 28 -2.2 22 -5.6 78 78 SW 14 22 30.03 1017 10 16 0.00 0.00
4:53 am 04:53 Clear 26 -3.3 21 -6.1 81 81 SW 13 20 30.05 1018 10 16 0.00 0.00
5:53 am 05:53 Clear 25 -3.9 20 -6.7 81 81 WSW 7 11 30.07 1018 10 16 0.00 0.00
6:53 am 06:53 Clear 27 -2.8 22 -5.6 81 81 WNW 6 9 30.07 1018 10 16 0.00 0.00
7:53 am 07:53 Clear 26 -3.3 21 -6.1 81 81 WNW 5 7 30.07 1018 10 16 0.00 0.00
8:53 am 08:53 Sunny 31 -0.6 24 -4.4 76 76 WSW 9 15 30.06 1018 10 16 0.00 0.00
9:53 am 09:53 Sunny 34 1.1 26 -3.3 73 73 WSW 15 24 30.04 1017 10 16 0.00 0.00
10:53 am 10:53 Sunny 38 3.3 27 -2.8 65 65 SW 21 33 30.02 1017 10 16 0.00 0.00
11:53 am 11:53 Sunny 41 5 28 -2.2 60 60 SW 21 33 29.97 1015 10 16 0.00 0.00
12:53 pm 12:53 Sunny 44 6.7 30 -1.1 58 58 SW 20 31 29.93 1014 10 16 0.00 0.00
1:53 pm 13:53 Sunny 48 8.9 28 -2.2 46 46 SW 21 33 29.90 1012 10 16 0.00 0.00
2:53 pm 14:53 Sunny 46 7.8 27 -2.8 47 47 SW 17 28 29.88 1012 10 16 0.00 0.00
3:53 pm 15:53 Sunny 43 6.1 25 -3.9 49 49 SW 17 28 29.86 1011 10 16 0.00 0.00
4:53 pm 16:53 Clear 38 3.3 25 -3.9 60 60 SW 10 17 29.86 1011 10 16 0.00 0.00
5:53 pm 17:53 Clear 42 5.6 23 -5 47 47 SW 18 30 29.83 1010 10 16 0.00 0.00
6:53 pm 18:53 Clear 44 6.7 23 -5 43 43 SW 24 39 29.80 1009 10 16 0.00 0.00
7:53 pm 19:53 Clear 43 6.1 23 -5 45 45 SW 23 37 29.79 1009 10 16 0.00 0.00
8:53 pm 20:53 Clear 42 5.6 23 -5 47 47 SW 26 43 29.76 1008 10 16 0.00 0.00
9:53 pm 21:53 Clear 43 6.1 23 -5 45 45 SW 23 37 29.74 1007 10 16 0.00 0.00
10:53 pm 22:53 Clear 43 6.1 23 -5 45 45 SW 24 39 29.72 1007 10 16 0.00 0.00
11:53 pm 23:53 Cloudy 42 5.6 23 -5 47 47 SW 15 24 29.71 1006 10 16 0.00 0.00

Powered by AerisWeather